Cloud_Cover
0 4 0 5 32 58 30 11 5 5 5 6 18 68 72 17 24 5 0 1 3 4
2 4 20 100 99 100 83 7 5 32 58 88 44 14 60 12 5 5 5 4 5 5
8 100 100 89 84 90 32 23 77 100 100 100 89 93 22 5 4 5 4 1 2 0
99 95 10 5 28 19 99 100 100 100 69 97 78 5 4 1 3 0 0 0 0 0
5 30 65 55 100 83 63 72 100 100 100 95 5 5 5 3 0 0 0 0 0 0
5 5 8 82 34 15 62 67 100 83 6 21 5 2 0 0 0 0 0 0 0 0
5 20 8 11 30 59 23 63 63 90 9 4 0 0 0 0 0 0 0 0 0 1
5 15 48 10 14 42 87 99 23 0 0 0 0 0 0 0 0 0 0 0 5 5
86 100 27 15 53 55 40 4 0 0 0 0 0 0 0 0 4 5 5 5 5 5
100 15 18 56 58 17 4 0 0 0 0 0 0 0 0 3 5 5 5 8 5 5
27 5 8 46 5 0 1 1 0 0 0 0 0 0 0 5 12 5 12 6 75 59
26 5 5 5 0 2 0 0 0 0 0 0 0 0 2 29 74 6 5 84 100 97
7 5 0 0 1 0 0 0 0 0 0 0 0 0 5 58 30 60 84 93 80 89
5 0 4 5 0 0 0 0 0 0 0 0 0 4 6 74 72 98 86 62 86 71